Maple Lake, MN

12:49 PM CDT on August 18, 2017 (GMT -0500)
Maple Lake Municipal

Weather History for KMGG - February, 2013

Change the Weather History Date:

Monday, February 25, 2013

  Actual Average (KSTC) Record (KSTC)
Temperature  
Mean Temperature 18 °F -  
Max Temperature 31 °F 30 °F 54 °F (1958)
Min Temperature 6 °F 8 °F -30 °F (1940)
Degree Days  
Heating Degree Days 46    
Moisture  
Dew Point 16 °F    
Average Humidity 85    
Maximum Humidity 97    
Minimum Humidity 68    
Precipitation  
Precipitation 0.00 in - - ()
Sea Level Pressure  
Sea Level Pressure 30.07 in    
Wind  
Wind Speed 1 mph (WSW)    
Max Wind Speed 6 mph    
Max Gust Speed -    
Visibility 8 miles    
Events      
Averages and records for this station are not official NWS values.
T = Trace of Precipitation, MM = Missing Value Source: NWS Daily Summary

Daily Weather History Graph

Daily Weather History Graph

Search for Another Location

Airport or City:

Trip Planner

Search our weather history database for the weather conditions in past years. The results will help you decide how hot, cold, wet, or windy it might be!

Date:

Astronomy

Feb. 25, 2013 Rise Set
Actual Time 7:00 AM CST 5:58 PM CST
Civil Twilight 6:30 AM CST 6:27 PM CST
Nautical Twilight 5:56 AM CST 7:02 PM CST
Astronomical Twilight 5:22 AM CST 7:36 PM CST
Moon 6:15 PM CST (2/25) 6:29 AM CST (2/25)
Length of Visible Light 11h 57m
Length of Day
10h 57m
Full, 100% of the Moon is Illuminated
Feb 25
Full
Feb 25
Full
Mar 4
Last Quarter
Mar 11
New
Mar 19
First Quarter

Hourly Weather History & Observations

Time (CST) Temp. Windchill Dew Point Humidity Pressure Visibility Wind Dir Wind Speed Gust Speed Precip Events Conditions
12:15 AM 6.6 °F - 5.2 °F 94% 30.09 in 7.0 mi Calm Calm - N/A   Clear
12:35 AM 6.3 °F - 4.8 °F 94% 30.08 in 7.0 mi Calm Calm - N/A   Scattered Clouds
12:56 AM 7.5 °F - 6.8 °F 97% 30.08 in 7.0 mi Calm Calm - N/A   Mostly Cloudy
1:15 AM 9.3 °F - 7.9 °F 94% 30.08 in 7.0 mi Calm Calm - N/A   Overcast
1:36 AM 12.0 °F - 10.6 °F 94% 30.08 in 7.0 mi Calm Calm - N/A   Overcast
1:55 AM 13.6 °F - 12.2 °F 94% 30.08 in 7.0 mi Calm Calm - N/A   Overcast
2:15 AM 14.2 °F - 12.6 °F 93% 30.08 in 10.0 mi Calm Calm - N/A   Overcast
2:36 AM 14.2 °F - 12.6 °F 93% 30.08 in 10.0 mi Calm Calm - N/A   Overcast
2:55 AM 14.9 °F - 13.3 °F 93% 30.07 in 10.0 mi Calm Calm - N/A   Overcast
3:15 AM 15.4 °F - 14.0 °F 94% 30.07 in 7.0 mi Calm Calm - N/A   Overcast
3:36 AM 15.8 °F - 14.4 °F 94% 30.07 in 7.0 mi Calm Calm - N/A   Overcast
3:56 AM 16.0 °F - 14.5 °F 94% 30.06 in 7.0 mi Calm Calm - N/A   Overcast
4:15 AM 15.8 °F - 14.0 °F 93% 30.07 in 7.0 mi Calm Calm - N/A   Overcast
4:36 AM 16.7 °F - 14.9 °F 93% 30.07 in 7.0 mi Calm Calm - N/A   Overcast
4:55 AM 16.2 °F - 14.5 °F 93% 30.06 in 7.0 mi Calm Calm - N/A   Overcast
5:15 AM 16.7 °F - 14.9 °F 93% 30.07 in 7.0 mi Calm Calm - N/A   Overcast
5:36 AM 16.5 °F - 14.9 °F 93% 30.07 in 7.0 mi Calm Calm - N/A   Overcast
5:55 AM 17.2 °F - 15.6 °F 93% 30.07 in 7.0 mi Calm Calm - N/A   Overcast
6:15 AM 17.6 °F - 15.8 °F 93% 30.07 in 7.0 mi Calm Calm - N/A   Overcast
6:35 AM 18.1 °F - 16.3 °F 93% 30.09 in 7.0 mi Calm Calm - N/A   Overcast
6:55 AM 18.5 °F - 16.3 °F 91% 30.10 in 7.0 mi Calm Calm - N/A   Overcast
7:15 AM 18.5 °F - 16.7 °F 93% 30.09 in 7.0 mi Calm Calm - N/A   Overcast
7:36 AM 19.2 °F - 16.7 °F 90% 30.09 in 7.0 mi Calm Calm - N/A   Overcast
7:55 AM 18.5 °F - 16.7 °F 93% 30.08 in 7.0 mi Calm Calm - N/A   Overcast
8:16 AM 19.2 °F - 17.1 °F 91% 30.09 in 7.0 mi Calm Calm - N/A   Overcast
8:35 AM 19.9 °F - 17.1 °F 89% 30.10 in 7.0 mi Calm Calm - N/A   Overcast
8:56 AM 21.2 °F - 17.6 °F 86% 30.10 in 10.0 mi Calm Calm - N/A   Overcast
9:15 AM 22.1 °F - 17.8 °F 83% 30.10 in 10.0 mi Calm Calm - N/A   Overcast
9:35 AM 23.2 °F - 18.1 °F 81% 30.10 in 10.0 mi Calm Calm - N/A   Overcast
9:55 AM 24.4 °F - 18.5 °F 78% 30.10 in 10.0 mi Calm Calm - N/A   Overcast
10:15 AM 25.2 °F - 19.2 °F 78% 30.09 in 10.0 mi Calm Calm - N/A   Overcast
10:36 AM 25.7 °F - 19.0 °F 76% 30.10 in 10.0 mi Calm Calm - N/A   Overcast
10:56 AM 27.3 °F - 19.2 °F 72% 30.09 in 10.0 mi Calm Calm - N/A   Overcast
11:15 AM 28.4 °F - 19.4 °F 69% 30.10 in 10.0 mi Calm Calm - N/A   Overcast
11:35 AM 28.6 °F - 20.1 °F 71% 30.10 in 10.0 mi Calm Calm - N/A   Overcast
11:55 AM 29.8 °F - 21.2 °F 70% 30.10 in 10.0 mi Calm Calm - N/A   Overcast
12:16 PM 30.4 °F 25.6 °F 21.6 °F 70% 30.08 in 10.0 mi SE 4.6 mph - N/A   Scattered Clouds
12:35 PM 30.7 °F 26.0 °F 21.7 °F 69% 30.08 in 10.0 mi SSE 4.6 mph - N/A   Clear
12:55 PM 30.0 °F - 21.9 °F 72% 30.08 in 10.0 mi Calm Calm - N/A   Scattered Clouds
1:16 PM 30.2 °F 25.4 °F 21.9 °F 71% 30.07 in 10.0 mi SW 4.6 mph - N/A   Scattered Clouds
1:36 PM 30.9 °F 27.5 °F 21.7 °F 69% 30.07 in 10.0 mi WSW 3.5 mph - N/A   Clear
1:56 PM 31.1 °F - 22.1 °F 69% 30.07 in 10.0 mi Calm Calm - N/A   Clear
2:15 PM 30.9 °F 25.2 °F 22.5 °F 71% 30.06 in 10.0 mi WNW 5.8 mph - N/A   Clear
2:35 PM 30.7 °F 27.3 °F 22.1 °F 70% 30.07 in 10.0 mi WSW 3.5 mph - N/A   Clear
2:56 PM 30.9 °F - 21.9 °F 69% 30.06 in 10.0 mi Calm Calm - N/A   Clear
3:15 PM 31.1 °F - 21.7 °F 68% 30.05 in 10.0 mi Calm Calm - N/A   Clear
3:35 PM 31.3 °F 27.9 °F 21.9 °F 68% 30.06 in 10.0 mi SSE 3.5 mph - N/A   Clear
3:56 PM 31.1 °F 27.7 °F 21.9 °F 69% 30.06 in 10.0 mi SSW 3.5 mph - N/A   Clear
4:15 PM 30.9 °F 27.5 °F 21.7 °F 69% 30.06 in 10.0 mi South 3.5 mph - N/A   Clear
4:35 PM 30.2 °F 26.7 °F 21.7 °F 71% 30.06 in 10.0 mi WNW 3.5 mph - N/A   Clear
4:56 PM 29.3 °F - 21.6 °F 73% 30.06 in 10.0 mi Calm Calm - N/A   Clear
8:12 PM 18.5 °F - 17.2 °F 95% 30.07 in 5.0 mi Calm Calm - N/A   Clear
8:16 PM 18.9 °F 13.7 °F 17.6 °F 95% 30.06 in 5.0 mi NW 3.5 mph - N/A   Clear
8:36 PM 16.5 °F - 15.8 °F 97% 30.06 in 4.0 mi Calm Calm - N/A   Clear
8:55 PM 15.4 °F - 14.4 °F 95% 30.06 in 4.0 mi Calm Calm - N/A   Clear
9:15 PM 15.4 °F 8.1 °F 14.7 °F 97% 30.05 in 3.0 mi NNW 4.6 mph - N/A   Clear
9:56 PM 12.6 °F - 11.3 °F 95% 30.04 in 2.5 mi Calm Calm - N/A   Clear
10:15 PM 11.3 °F - 10.2 °F 95% 30.04 in 2.5 mi Calm Calm - N/A   Clear
10:36 PM 9.7 °F - 8.1 °F 93% 30.03 in 3.0 mi Calm Calm - N/A   Clear
10:56 PM 10.0 °F - 8.4 °F 93% 30.04 in 3.0 mi Calm Calm - N/A   Clear
11:15 PM 8.2 °F 1.6 °F 6.6 °F 93% 30.04 in 3.0 mi North 3.5 mph - N/A   Clear
11:36 PM 8.4 °F 1.8 °F 7.2 °F 95% 30.04 in 2.5 mi NNW 3.5 mph - N/A   Clear
11:55 PM 9.1 °F - 7.7 °F 94% 30.04 in 4.0 mi Calm Calm - N/A   Clear